Location: Tel Aviv
(32.0670°N, 34.7670°E)
Time: 22:20:04
(UTC+02:00)

CUTE-I - Pass Details

Date: 18 December 2025
Orbit: 805 x 817 km, 98.7° (Epoch: 21 January)

Event Time Altitude Azimuth Distance (km) Brightness Sun altitude
Rises 17:11:24 0° 164° (SSE) 3,302 ? -7.0°
Reaches altitude 10° 17:13:43 10° 163° (SSE) 2,376 ? -7.4°
Maximum altitude 17:18:59 83° 76° (ENE) 817 ? -8.5°
Drops below altitude 10° 17:24:17 10° 349° (N) 2,395 ? -9.5°
Sets 17:26:38 0° 349° (N) 3,332 ? -10.0°
